WXM80 ListenWXM80 Stop

You find our weather info also at:

UK Metoffice

WeatherCloud

Weather Underground

Northeastern Weather Network

AWEKAS

Citizen Weather Observer Program (CWOP)

HAMweather, WeatherForYou, PWS Weather


Weather Underground History page Text

Daily Summary for December 27, 2017 Units:  Metric    English   Both
« Previous Day
Next Day »
Daily Weekly Monthly Yearly Custom
  High: Low: Average:
Temperature: -3.8 °C -7.4 °C -5.6 °C
Dew Point: -11.7 °C -15.6 °C -13.7 °C
Humidity: 60 % 42 % 53 %
Wind Speed: 19 km/h 0.8 km/h 7.9 km/h
Wind Gust: 32.2 km/h - -
Wind:- - WNW
Pressure: 1033.1 hPa 1029.7 hPa -
Precipitation: 0 mm    
Historical Graphs
 
 
Tabular Data for December 27, 2017
Time Temperature Dew Point Pressure Wind Wind Speed Wind Gust Humidity Rainfall Rate (Hourly)
00:00 -4.3 °C -12 °C 1031 hPa NW 7.4 km/h 16.7 km/h 55 % 0 mm
00:01 -4.3 °C -12 °C 1031 hPa NW 7.2 km/h 16.7 km/h 55 % 0 mm
00:06 -4.3 °C -12 °C 1031 hPa NW 8 km/h 16.1 km/h 55 % 0 mm
00:07 -4.3 °C -12.1 °C 1031 hPa NW 6.3 km/h 16.7 km/h 55 % 0 mm
00:13 -4.3 °C -12.1 °C 1030.7 hPa WNW 4.7 km/h 14.8 km/h 55 % 0 mm
00:16 -4.4 °C -11.7 °C 1031 hPa NW 5.8 km/h 11.1 km/h 57 % 0 mm
00:21 -4.4 °C -11.7 °C 1031 hPa WNW 6.4 km/h 12.9 km/h 57 % 0 mm
00:26 -4.4 °C -11.7 °C 1031 hPa NW 4.7 km/h 13 km/h 57 % 0 mm
00:32 -4.5 °C -11.7 °C 1031 hPa North 9.3 km/h 16.7 km/h 57 % 0 mm
00:37 -4.6 °C -12 °C 1031 hPa NNW 5.3 km/h 14.8 km/h 56 % 0 mm
00:39 -4.6 °C -11.8 °C 1031 hPa WNW 12.4 km/h 16.7 km/h 57 % 0 mm
00:44 -4.7 °C -12.1 °C 1031 hPa NNW 7.7 km/h 14.8 km/h 56 % 0 mm
00:46 -4.7 °C -12.1 °C 1030.7 hPa NW 4.7 km/h 9.3 km/h 56 % 0 mm
00:51 -4.7 °C -12.1 °C 1031 hPa NW 7.2 km/h 18.5 km/h 56 % 0 mm
00:52 -4.7 °C -12.2 °C 1031 hPa NNW 9.2 km/h 14.8 km/h 56 % 0 mm
00:57 -4.7 °C -12.2 °C 1031 hPa NW 6.9 km/h 14.8 km/h 56 % 0 mm
01:01 -4.7 °C -11.9 °C 1031 hPa NW 10.3 km/h 18.5 km/h 57 % 0 mm
01:06 -4.7 °C -12.2 °C 1031 hPa NW 12.6 km/h 18.5 km/h 56 % 0 mm
01:13 -4.8 °C -12 °C 1030.7 hPa NW 7.9 km/h 16.7 km/h 57 % 0 mm
01:15 -4.8 °C -12 °C 1031 hPa WNW 12.1 km/h 16.7 km/h 57 % 0 mm
01:20 -4.8 °C -11.8 °C 1031 hPa WNW 5.1 km/h 9.7 km/h 58 % 0 mm
01:21 -4.7 °C -11.7 °C 1031 hPa West 6.1 km/h 18.5 km/h 58 % 0 mm
01:22 -4.8 °C -11.8 °C 1031 hPa WNW 5.6 km/h 8 km/h 58 % 0 mm
01:26 -4.8 °C -12.4 °C 1031 hPa NNW 12.2 km/h 20.4 km/h 55 % 0 mm
01:31 -4.8 °C -12.5 °C 1031 hPa NNW 10.8 km/h 16.7 km/h 55 % 0 mm
01:32 -4.8 °C -12.5 °C 1031 hPa WSW 9 km/h 14.8 km/h 55 % 0 mm
01:37 -4.8 °C -12.3 °C 1031 hPa NW 9.5 km/h 16.7 km/h 56 % 0 mm
01:38 -4.8 °C -12.3 °C 1031 hPa WNW 9.5 km/h 16.7 km/h 56 % 0 mm
01:39 -4.8 °C -12.3 °C 1031 hPa West 11.1 km/h 18.5 km/h 56 % 0 mm
01:44 -4.9 °C -12.6 °C 1031 hPa NW 11.1 km/h 16.1 km/h 55 % 0 mm
01:49 -5 °C -12.7 °C 1031 hPa WNW 10.5 km/h 22.2 km/h 55 % 0 mm
01:54 -5 °C -12.2 °C 1031.4 hPa WNW 7.4 km/h 9.7 km/h 57 % 0 mm
01:55 -5.1 °C -12.5 °C 1031 hPa NW 8.5 km/h 14.8 km/h 56 % 0 mm
02:00 -5.1 °C -12.1 °C 1031.4 hPa NW 11.6 km/h 14.8 km/h 58 % 0 mm
02:05 -5.1 °C -12.3 °C 1031.4 hPa WNW 8 km/h 14.8 km/h 57 % 0 mm
02:10 -5.2 °C -12.4 °C 1031.4 hPa West 6.9 km/h 14.8 km/h 57 % 0 mm
02:15 -5.2 °C -12.2 °C 1031.4 hPa WNW 7.4 km/h 18.5 km/h 58 % 0 mm
02:16 -5.2 °C -12.2 °C 1031.4 hPa NNW 6.1 km/h 16.7 km/h 58 % 0 mm
02:18 -5.2 °C -12.2 °C 1031.4 hPa NNW 3.7 km/h 9.3 km/h 58 % 0 mm
02:21 -5.2 °C -12.4 °C 1031.4 hPa NNW 7.9 km/h 14.8 km/h 57 % 0 mm
02:24 -5.2 °C -12.2 °C 1031.4 hPa NW 12.2 km/h 22.2 km/h 58 % 0 mm
02:29 -5.2 °C -12.2 °C 1031.4 hPa WSW 10.1 km/h 16.1 km/h 58 % 0 mm
02:34 -5.2 °C -12 °C 1031.4 hPa West 5.8 km/h 6.4 km/h 59 % 0 mm
02:39 -5.2 °C -12.2 °C 1031.7 hPa NNW 4.7 km/h 17.7 km/h 58 % 0 mm
02:44 -5.3 °C -12.3 °C 1031.7 hPa NW 7.6 km/h 24.1 km/h 58 % 0 mm
02:49 -5.3 °C -12.3 °C 1031.7 hPa NW 8.5 km/h 16.7 km/h 58 % 0 mm
02:54 -5.3 °C -12.3 °C 1031.7 hPa NW 9 km/h 14.5 km/h 58 % 0 mm
02:59 -5.3 °C -12.1 °C 1031.7 hPa West 10.5 km/h 17.7 km/h 59 % 0 mm
03:02 -5.3 °C -12.3 °C 1031.7 hPa NW 9.7 km/h 16.1 km/h 58 % 0 mm
03:04 -5.3 °C -12.3 °C 1031.7 hPa NW 9.2 km/h 20.4 km/h 58 % 0 mm
03:09 -5.3 °C -12.6 °C 1031.4 hPa WNW 6.3 km/h 11.1 km/h 57 % 0 mm
03:14 -5.3 °C -12.3 °C 1031.7 hPa NW 7.6 km/h 13 km/h 58 % 0 mm
03:15 -5.3 °C -12.3 °C 1031.4 hPa NW 6.6 km/h 13 km/h 58 % 0 mm
03:20 -5.4 °C -12.4 °C 1031.4 hPa WNW 6.4 km/h 20.4 km/h 58 % 0 mm
03:25 -5.4 °C -12.6 °C 1031.7 hPa NNW 6.3 km/h 14.8 km/h 57 % 0 mm
03:27 -5.4 °C -12.4 °C 1031.7 hPa North 10 km/h 16.7 km/h 58 % 0 mm
03:32 -5.4 °C -12.4 °C 1031.7 hPa NNW 10 km/h 19.3 km/h 58 % 0 mm
03:37 -5.4 °C -12.4 °C 1031.7 hPa West 10.3 km/h 16.7 km/h 58 % 0 mm
03:42 -5.4 °C -12.2 °C 1031.7 hPa NW 9.8 km/h 19.3 km/h 59 % 0 mm
03:48 -5.5 °C -12.4 °C 1031.7 hPa NW 8.2 km/h 18.5 km/h 58 % 0 mm
03:52 -5.5 °C -12.4 °C 1031.7 hPa NW 7.7 km/h 12.9 km/h 58 % 0 mm
03:57 -5.6 °C -12.9 °C 1031.7 hPa NW 8.2 km/h 14.5 km/h 56 % 0 mm
04:00 -5.6 °C -12.9 °C 1031.7 hPa WNW 11.6 km/h 20.9 km/h 56 % 0 mm
04:05 -5.6 °C -13.2 °C 1031.7 hPa WSW 10.5 km/h 22.2 km/h 55 % 0 mm
04:10 -5.7 °C -13.1 °C 1031.7 hPa WNW 6.1 km/h 16.1 km/h 56 % 0 mm
04:13 -5.7 °C -12.8 °C 1031.7 hPa NW 8.4 km/h 11.3 km/h 57 % 0 mm
04:19 -5.7 °C -12.8 °C 1031.7 hPa WNW 3.4 km/h 18.5 km/h 57 % 0 mm
04:24 -5.7 °C -12.9 °C 1031.7 hPa NNW 4 km/h 13 km/h 57 % 0 mm
04:25 -5.7 °C -12.9 °C 1031.7 hPa West 10.3 km/h 24.1 km/h 57 % 0 mm
04:29 -5.7 °C -13.1 °C 1031.7 hPa NW 7.7 km/h 14.8 km/h 56 % 0 mm
04:31 -5.7 °C -13.1 °C 1031.7 hPa WNW 7.7 km/h 14.8 km/h 56 % 0 mm
04:36 -5.7 °C -12.7 °C 1032.1 hPa NW 2.4 km/h 11.1 km/h 58 % 0 mm
04:41 -5.8 °C -12.7 °C 1032.1 hPa NW 11.6 km/h 16.7 km/h 58 % 0 mm
04:46 -5.8 °C -12.5 °C 1032.1 hPa NNE 2.1 km/h 9.3 km/h 59 % 0 mm
04:51 -5.8 °C -12.3 °C 1032.1 hPa West 5.1 km/h 9.3 km/h 60 % 0 mm
04:52 -5.7 °C -12.4 °C 1032.1 hPa NW 5 km/h 12.9 km/h 59 % 0 mm
04:57 -5.8 °C -12.5 °C 1032.1 hPa NW 4.8 km/h 9.3 km/h 59 % 0 mm
05:02 -5.8 °C -12.5 °C 1032.1 hPa NW 9 km/h 11.3 km/h 59 % 0 mm
05:03 -5.8 °C -12.8 °C 1032.1 hPa NW 8.5 km/h 18.5 km/h 58 % 0 mm
05:06 -5.8 °C -12.8 °C 1031.7 hPa NNW 7.2 km/h 14.5 km/h 58 % 0 mm
05:10 -5.8 °C -12.8 °C 1032.1 hPa WNW 7.9 km/h 14.8 km/h 58 % 0 mm
05:12 -5.8 °C -12.8 °C 1031.7 hPa WNW 7.6 km/h 13 km/h 58 % 0 mm
05:16 -5.9 °C -12.8 °C 1031.7 hPa WNW 6 km/h 18.5 km/h 58 % 0 mm
05:21 -5.9 °C -12.6 °C 1032.1 hPa WNW 5.3 km/h 11.1 km/h 59 % 0 mm
05:27 -5.9 °C -12.9 °C 1032.1 hPa WNW 8.5 km/h 14.5 km/h 58 % 0 mm
05:28 -5.9 °C -12.9 °C 1032.1 hPa NNW 10 km/h 14.8 km/h 58 % 0 mm
05:33 -5.9 °C -12.4 °C 1032.1 hPa WSW 3.7 km/h 14.5 km/h 60 % 0 mm
05:37 -5.9 °C -12.7 °C 1032.1 hPa NW 4 km/h 13 km/h 59 % 0 mm
05:42 -5.9 °C -12.7 °C 1032.1 hPa NNW 2.7 km/h 13 km/h 59 % 0 mm
05:46 -5.9 °C -12.7 °C 1032.1 hPa NW 3.2 km/h 12.9 km/h 59 % 0 mm
05:51 -6 °C -12.9 °C 1032.4 hPa WNW 3.2 km/h 19.3 km/h 58 % 0 mm
05:56 -6 °C -12.7 °C 1032.4 hPa WNW 3.2 km/h 7.4 km/h 59 % 0 mm
06:01 -6 °C -12.9 °C 1032.4 hPa NW 4 km/h 11.1 km/h 58 % 0 mm
06:05 -6 °C -12.9 °C 1032.4 hPa NW 6.8 km/h 16.7 km/h 58 % 0 mm
06:10 -6.1 °C -12.8 °C 1032.4 hPa NW 8.4 km/h 14.8 km/h 59 % 0 mm
06:12 -6.1 °C -12.8 °C 1032.4 hPa West 3.2 km/h 13 km/h 59 % 0 mm
06:15 -6.1 °C -12.8 °C 1032.7 hPa NNW 7.2 km/h 14.8 km/h 59 % 0 mm
06:20 -6.1 °C -12.8 °C 1032.4 hPa WNW 5.1 km/h 9.3 km/h 59 % 0 mm
06:25 -6.1 °C -12.8 °C 1032.7 hPa WNW 1.8 km/h 7.4 km/h 59 % 0 mm
06:27 -6.1 °C -13.1 °C 1032.7 hPa WNW 3.2 km/h 9.7 km/h 58 % 0 mm
06:32 -6.1 °C -12.6 °C 1032.7 hPa NW 3.2 km/h 8 km/h 60 % 0 mm
06:33 -6.1 °C -12.6 °C 1032.7 hPa NW 9.3 km/h 16.7 km/h 60 % 0 mm
06:38 -6.2 °C -13.1 °C 1032.7 hPa WNW 3.2 km/h 9.3 km/h 58 % 0 mm
06:41 -6.2 °C -13.1 °C 1032.7 hPa NW 4.8 km/h 11.3 km/h 58 % 0 mm
06:46 -6.2 °C -12.7 °C 1032.4 hPa NNW 4 km/h 13 km/h 60 % 0 mm
06:48 -6.2 °C -12.7 °C 1032.7 hPa NW 3.9 km/h 11.1 km/h 60 % 0 mm
06:53 -6.2 °C -12.7 °C 1032.7 hPa WNW 5.1 km/h 13 km/h 60 % 0 mm
06:58 -6.3 °C -13 °C 1033.1 hPa WNW 6 km/h 14.8 km/h 59 % 0 mm
07:03 -6.3 °C -13 °C 1032.7 hPa NNW 7.4 km/h 11.1 km/h 59 % 0 mm
07:07 -6.3 °C -13.1 °C 1032.7 hPa NNW 8.7 km/h 18.5 km/h 59 % 0 mm
07:09 -6.3 °C -13.1 °C 1032.7 hPa NNW 6.4 km/h 13 km/h 59 % 0 mm
07:15 -6.4 °C -13.1 °C 1032.7 hPa WNW 2.9 km/h 9.7 km/h 59 % 0 mm
07:17 -6.4 °C -13.2 °C 1032.7 hPa NNW 5.3 km/h 13 km/h 59 % 0 mm
07:22 -6.5 °C -13.2 °C 1032.7 hPa WNW 6.3 km/h 12.9 km/h 59 % 0 mm
07:23 -6.5 °C -13.2 °C 1032.7 hPa NW 7.2 km/h 12.9 km/h 59 % 0 mm
07:28 -6.5 °C -13.2 °C 1032.7 hPa West 5.6 km/h 12.9 km/h 59 % 0 mm
07:32 -6.6 °C -13.3 °C 1032.7 hPa WNW 10.8 km/h 17.7 km/h 59 % 0 mm
07:37 -6.6 °C -13.4 °C 1032.4 hPa NW 5.3 km/h 9.3 km/h 58 % 0 mm
07:38 -6.6 °C -13.4 °C 1032.4 hPa WNW 3.4 km/h 11.1 km/h 58 % 0 mm
07:41 -6.6 °C -13.5 °C 1032.4 hPa WNW 3.2 km/h 11.1 km/h 58 % 0 mm
07:46 -6.7 °C -13.2 °C 1032.4 hPa NW 1.8 km/h 5.6 km/h 60 % 0 mm
07:51 -6.7 °C -13.3 °C 1032.7 hPa WNW 7.2 km/h 11.3 km/h 59 % 0 mm
07:56 -6.7 °C -13.4 °C 1032.7 hPa West 7.1 km/h 11.1 km/h 59 % 0 mm
08:00 -6.7 °C -13.2 °C 1032.7 hPa WNW 8.4 km/h 17.7 km/h 60 % 0 mm
08:05 -6.7 °C -13.6 °C 1032.7 hPa West 5.1 km/h 8 km/h 58 % 0 mm
08:06 -6.7 °C -13.4 °C 1032.7 hPa WNW 5.3 km/h 13 km/h 59 % 0 mm
08:12 -6.7 °C -13.6 °C 1032.7 hPa WNW 4.3 km/h 13 km/h 58 % 0 mm
08:17 -6.7 °C -13.2 °C 1032.7 hPa NW 3.1 km/h 11.1 km/h 60 % 0 mm
08:18 -6.7 °C -13.2 °C 1032.4 hPa WNW 4.5 km/h 7.4 km/h 60 % 0 mm
08:23 -6.6 °C -13.3 °C 1032.7 hPa NW 7.2 km/h 18.5 km/h 59 % 0 mm
08:27 -6.6 °C -13.3 °C 1032.7 hPa West 5.3 km/h 18.5 km/h 59 % 0 mm
08:29 -6.5 °C -13.4 °C 1032.7 hPa WNW 5 km/h 12.9 km/h 58 % 0 mm
08:34 -6.5 °C -13.4 °C 1032.7 hPa WNW 7.2 km/h 18.5 km/h 58 % 0 mm
08:39 -6.4 °C -13.2 °C 1032.7 hPa NW 7.9 km/h 14.8 km/h 59 % 0 mm
08:41 -6.4 °C -13.3 °C 1032.7 hPa NW 4.8 km/h 14.5 km/h 58 % 0 mm
08:45 -6.4 °C -13.3 °C 1032.7 hPa NNW 6.6 km/h 11.3 km/h 58 % 0 mm
08:46 -6.4 °C -13.3 °C 1032.7 hPa WSW 8.9 km/h 17.7 km/h 58 % 0 mm
08:51 -6.3 °C -13.3 °C 1032.7 hPa NW 11.1 km/h 18.5 km/h 58 % 0 mm
08:52 -6.3 °C -13.4 °C 1032.7 hPa NW 4.2 km/h 11.1 km/h 57 % 0 mm
08:57 -6.3 °C -13.2 °C 1032.7 hPa NW 5.1 km/h 6.4 km/h 58 % 0 mm
09:02 -6.3 °C -13.4 °C 1032.7 hPa West 6.8 km/h 13 km/h 57 % 0 mm
09:03 -6.3 °C -13.4 °C 1032.7 hPa NW 4.7 km/h 9.7 km/h 57 % 0 mm
09:08 -6.2 °C -13.4 °C 1032.7 hPa WNW 3.4 km/h 14.8 km/h 57 % 0 mm
09:11 -6.2 °C -13.2 °C 1032.7 hPa WNW 5 km/h 11.1 km/h 58 % 0 mm
09:16 -6.2 °C -13.4 °C 1032.7 hPa West 1.1 km/h 6.4 km/h 57 % 0 mm
09:17 -6.2 °C -13.4 °C 1032.7 hPa WNW 4.7 km/h 11.1 km/h 57 % 0 mm
09:19 -6.2 °C -13.4 °C 1032.7 hPa WNW 8.4 km/h 14.8 km/h 57 % 0 mm
09:24 -6.2 °C -13.2 °C 1032.7 hPa WNW 6.6 km/h 11.1 km/h 58 % 0 mm
09:25 -6.2 °C -13.2 °C 1032.7 hPa NW 5 km/h 14.8 km/h 58 % 0 mm
09:30 -6.2 °C -13.4 °C 1033.1 hPa WNW 10.1 km/h 18.5 km/h 57 % 0 mm
09:32 -6.2 °C -13.4 °C 1033.1 hPa WSW 2.6 km/h 11.1 km/h 57 % 0 mm
09:37 -6.2 °C -13.2 °C 1033.1 hPa NNW 3.2 km/h 6.4 km/h 58 % 0 mm
09:43 -6.2 °C -12.9 °C 1033.1 hPa West 5.5 km/h 9.3 km/h 59 % 0 mm
09:44 -6.2 °C -12.9 °C 1033.1 hPa WNW 10.9 km/h 18.5 km/h 59 % 0 mm
09:49 -6.1 °C -12.8 °C 1033.1 hPa WSW 8 km/h 11.1 km/h 59 % 0 mm
09:50 -6.1 °C -12.8 °C 1033.1 hPa West 8.5 km/h 14.5 km/h 59 % 0 mm
09:55 -6.1 °C -12.8 °C 1033.1 hPa NW 6.3 km/h 11.1 km/h 59 % 0 mm
09:57 -6 °C -12.7 °C 1033.1 hPa WNW 5.5 km/h 11.1 km/h 59 % 0 mm
10:03 -5.9 °C -12.9 °C 1033.1 hPa WSW 8.5 km/h 11.3 km/h 58 % 0 mm
10:04 -5.9 °C -13.1 °C 1033.1 hPa WSW 10.6 km/h 18.5 km/h 57 % 0 mm
10:08 -5.8 °C -13.2 °C 1033.1 hPa NW 8 km/h 13 km/h 56 % 0 mm
10:13 -5.7 °C -13.1 °C 1033.1 hPa NW 7.9 km/h 18.5 km/h 56 % 0 mm
10:14 -5.7 °C -13.3 °C 1033.1 hPa NW 6.4 km/h 13 km/h 55 % 0 mm
10:19 -5.6 °C -13.2 °C 1033.1 hPa NW 6.6 km/h 18.5 km/h 55 % 0 mm
10:20 -5.6 °C -13.2 °C 1033.1 hPa WNW 2.9 km/h 8 km/h 55 % 0 mm
10:25 -5.4 °C -13.1 °C 1033.1 hPa WNW 9.2 km/h 14.8 km/h 55 % 0 mm
10:27 -5.4 °C -13.3 °C 1033.1 hPa NW 10.3 km/h 18.5 km/h 54 % 0 mm
10:32 -5.3 °C -13.7 °C 1033.1 hPa WNW 9 km/h 13 km/h 52 % 0 mm
10:37 -5.3 °C -13.6 °C 1033.1 hPa WSW 6.1 km/h 16.7 km/h 52 % 0 mm
10:39 -5.3 °C -13.6 °C 1032.7 hPa West 8.5 km/h 18.5 km/h 52 % 0 mm
10:44 -5.3 °C -13.4 °C 1032.7 hPa West 5.1 km/h 11.1 km/h 53 % 0 mm
10:51 -5.2 °C -12.6 °C 1032.7 hPa WNW 4.7 km/h 7.4 km/h 56 % 0 mm
10:53 -5.2 °C -12.6 °C 1032.7 hPa WNW 5 km/h 7.4 km/h 56 % 0 mm
10:58 -5.2 °C -12.6 °C 1032.4 hPa West 5 km/h 9.7 km/h 56 % 0 mm
11:03 -5.1 °C -12.7 °C 1032.4 hPa WNW 4.8 km/h 11.1 km/h 55 % 0 mm
11:04 -5.1 °C -12.7 °C 1032.4 hPa West 9.7 km/h 16.7 km/h 55 % 0 mm
11:09 -5.1 °C -13.4 °C 1032.4 hPa West 7.6 km/h 14.8 km/h 52 % 0 mm
11:10 -5.1 °C -13.4 °C 1032.4 hPa WSW 9.2 km/h 13 km/h 52 % 0 mm
11:15 -5.1 °C -13.4 °C 1032.4 hPa West 9.5 km/h 18.5 km/h 52 % 0 mm
11:16 -5.1 °C -13.4 °C 1032.4 hPa WNW 4.8 km/h 14.8 km/h 52 % 0 mm
11:21 -5.1 °C -13.7 °C 1032.4 hPa WNW 11.3 km/h 18.5 km/h 51 % 0 mm
11:26 -5.2 °C -14 °C 1032.1 hPa WNW 11.3 km/h 18.5 km/h 50 % 0 mm
11:29 -5.2 °C -14 °C 1032.1 hPa WNW 9.3 km/h 18.5 km/h 50 % 0 mm
11:34 -5.2 °C -14 °C 1032.1 hPa WNW 2.9 km/h 14.8 km/h 50 % 0 mm
11:37 -5.2 °C -14.1 °C 1031.7 hPa NW 6 km/h 14.8 km/h 50 % 0 mm
11:41 -5.2 °C -13.8 °C 1032.1 hPa NW 9.2 km/h 11.3 km/h 51 % 0 mm
11:43 -5.2 °C -14.1 °C 1032.1 hPa WNW 10.3 km/h 18.5 km/h 50 % 0 mm
11:48 -5.2 °C -14.1 °C 1031.7 hPa WNW 4 km/h 5.6 km/h 50 % 0 mm
11:49 -5.2 °C -14.1 °C 1031.7 hPa WNW 3.1 km/h 5.6 km/h 50 % 0 mm
11:54 -5.2 °C -13.6 °C 1031.7 hPa WNW 8 km/h 16.7 km/h 52 % 0 mm
11:55 -5.2 °C -13.6 °C 1031.7 hPa West 7.6 km/h 16.7 km/h 52 % 0 mm
12:00 -5.2 °C -13.3 °C 1031.7 hPa NW 7.1 km/h 12.9 km/h 53 % 0 mm
12:05 -5.2 °C -13.5 °C 1031.4 hPa WNW 7.1 km/h 14.8 km/h 52 % 0 mm
12:06 -5.1 °C -13.7 °C 1031.4 hPa WNW 4.5 km/h 8 km/h 51 % 0 mm
12:11 -5.1 °C -13.9 °C 1031.4 hPa NW 11.9 km/h 18.5 km/h 50 % 0 mm
12:12 -5.1 °C -14.1 °C 1031.4 hPa WSW 8.4 km/h 20.4 km/h 49 % 0 mm
12:17 -5 °C -13.8 °C 1031.4 hPa West 7.2 km/h 14.8 km/h 50 % 0 mm
12:22 -4.9 °C -13.7 °C 1031 hPa SW 6.3 km/h 11.3 km/h 50 % 0 mm
12:27 -4.6 °C -13.2 °C 1031 hPa WSW 9.3 km/h 11.1 km/h 51 % 0 mm
12:31 -4.4 °C -13.3 °C 1031.4 hPa NNW 10 km/h 22.2 km/h 50 % 0 mm
12:36 -4.3 °C -13.2 °C 1031 hPa WNW 5.1 km/h 11.1 km/h 50 % 0 mm
12:39 -4.2 °C -13.3 °C 1030.7 hPa NW 5.5 km/h 9.7 km/h 49 % 0 mm
12:44 -4.1 °C -13.4 °C 1030.7 hPa NW 5.6 km/h 14.8 km/h 48 % 0 mm
12:48 -4 °C -13.7 °C 1030.7 hPa NW 5.8 km/h 13 km/h 47 % 0 mm
12:53 -3.9 °C -13.3 °C 1030.7 hPa WNW 12.4 km/h 16.7 km/h 48 % 0 mm
12:58 -3.9 °C -13.6 °C 1030.4 hPa NW 12.1 km/h 24.1 km/h 47 % 0 mm
13:03 -3.9 °C -13.6 °C 1030.4 hPa SW 11.1 km/h 14.8 km/h 47 % 0 mm
13:04 -3.9 °C -13.8 °C 1030.4 hPa WNW 10.3 km/h 18.5 km/h 46 % 0 mm
13:09 -3.9 °C -13.6 °C 1030.4 hPa West 6.8 km/h 11.1 km/h 47 % 0 mm
13:14 -3.8 °C -13.5 °C 1030.4 hPa WNW 6.4 km/h 9.7 km/h 47 % 0 mm
13:19 -3.8 °C -14.3 °C 1030.4 hPa SW 13.4 km/h 18.5 km/h 44 % 0 mm
13:20 -3.8 °C -14.3 °C 1030.4 hPa West 13.4 km/h 18.5 km/h 44 % 0 mm
13:26 -3.9 °C -14.2 °C 1030 hPa West 9.7 km/h 20.9 km/h 45 % 0 mm
13:29 -3.9 °C -14.2 °C 1030 hPa NW 13.4 km/h 13.4 km/h 45 % 0 mm
13:34 -3.9 °C -14.4 °C 1030 hPa West 9.5 km/h 9.7 km/h 44 % 0 mm
13:39 -4 °C -14.8 °C 1030 hPa WSW 10.1 km/h 16.7 km/h 43 % 0 mm
13:40 -4 °C -15.1 °C 1030 hPa WSW 9.8 km/h 16.7 km/h 42 % 0 mm
13:43 -4 °C -15.1 °C 1030 hPa NW 7.4 km/h 16.7 km/h 42 % 0 mm
13:48 -4 °C -15.1 °C 1030 hPa West 10.5 km/h 20.4 km/h 42 % 0 mm
13:52 -4 °C -14.8 °C 1030 hPa West 6.1 km/h 11.3 km/h 43 % 0 mm
13:57 -4 °C -14.5 °C 1029.7 hPa NNW 1.9 km/h 3.7 km/h 44 % 0 mm
13:59 -3.9 °C -14.2 °C 1030 hPa NW 10.1 km/h 14.8 km/h 45 % 0 mm
14:05 -3.9 °C -14.4 °C 1030 hPa WSW 6.4 km/h 16.7 km/h 44 % 0 mm
14:06 -3.9 °C -14.4 °C 1030 hPa WNW 8 km/h 19.3 km/h 44 % 0 mm
14:07 -3.9 °C -14.7 °C 1030 hPa NW 7.6 km/h 18.5 km/h 43 % 0 mm
14:12 -3.9 °C -14.7 °C 1030 hPa WNW 7.2 km/h 9.3 km/h 43 % 0 mm
14:15 -3.9 °C -14.2 °C 1030 hPa NW 8.4 km/h 16.7 km/h 45 % 0 mm
14:20 -4.1 °C -14.8 °C 1030 hPa WSW 5.5 km/h 13 km/h 43 % 0 mm
14:23 -4.1 °C -14.8 °C 1030 hPa West 10.3 km/h 16.7 km/h 43 % 0 mm
14:27 -4.2 °C -14.6 °C 1030 hPa NNW 6.9 km/h 16.7 km/h 44 % 0 mm
14:28 -4.2 °C -14.9 °C 1030 hPa WSW 10.6 km/h 14.8 km/h 43 % 0 mm
14:33 -4.3 °C -14.7 °C 1030 hPa WNW 7.2 km/h 13 km/h 44 % 0 mm
14:35 -4.3 °C -14.8 °C 1030 hPa NNW 7.6 km/h 13 km/h 44 % 0 mm
14:40 -4.4 °C -14.9 °C 1029.7 hPa WNW 6.3 km/h 11.1 km/h 44 % 0 mm
14:44 -4.4 °C -14.3 °C 1029.7 hPa WNW 8.7 km/h 18.5 km/h 46 % 0 mm
14:49 -4.6 °C -15 °C 1029.7 hPa NNW 6.1 km/h 11.1 km/h 44 % 0 mm
14:52 -4.6 °C -15 °C 1029.7 hPa WNW 7.4 km/h 16.7 km/h 44 % 0 mm
14:57 -4.7 °C -14.8 °C 1029.7 hPa NW 5.3 km/h 11.1 km/h 45 % 0 mm
14:58 -4.6 °C -14.8 °C 1030 hPa West 6 km/h 11.1 km/h 45 % 0 mm
15:03 -4.7 °C -14.8 °C 1029.7 hPa NW 10.6 km/h 13 km/h 45 % 0 mm
15:04 -4.7 °C -14.8 °C 1030 hPa NNW 6.8 km/h 13 km/h 45 % 0 mm
15:09 -4.7 °C -14.6 °C 1030 hPa WNW 5.8 km/h 14.8 km/h 46 % 0 mm
15:14 -4.8 °C -15.2 °C 1030 hPa North 8 km/h 14.8 km/h 44 % 0 mm
15:18 -4.8 °C -14.9 °C 1030 hPa WNW 3.7 km/h 5.6 km/h 45 % 0 mm
15:23 -4.8 °C -14.9 °C 1030 hPa WNW 5.8 km/h 16.7 km/h 45 % 0 mm
15:24 -4.8 °C -14.9 °C 1030 hPa WNW 3.9 km/h 16.7 km/h 45 % 0 mm
15:26 -4.8 °C -15.2 °C 1030 hPa NW 4.7 km/h 9.3 km/h 44 % 0 mm
15:31 -4.8 °C -14.9 °C 1030 hPa NW 7.6 km/h 14.8 km/h 45 % 0 mm
15:33 -4.8 °C -14.7 °C 1030 hPa WNW 12.2 km/h 20.4 km/h 46 % 0 mm
15:37 -4.9 °C -14.8 °C 1030.4 hPa NNW 7.2 km/h 14.8 km/h 46 % 0 mm
15:41 -4.9 °C -14.8 °C 1030 hPa West 3.4 km/h 5.6 km/h 46 % 0 mm
15:46 -4.9 °C -14.8 °C 1030 hPa WNW 5 km/h 9.7 km/h 46 % 0 mm
15:51 -4.9 °C -14.8 °C 1030 hPa WNW 2.9 km/h 5.6 km/h 46 % 0 mm
15:56 -4.9 °C -14.6 °C 1030 hPa WNW 0.8 km/h 11.1 km/h 47 % 0 mm
16:01 -5 °C -14.3 °C 1030 hPa WNW 3.4 km/h 9.3 km/h 48 % 0 mm
16:02 -5 °C -14.3 °C 1030 hPa WNW 2.7 km/h 9.3 km/h 48 % 0 mm
16:06 -5 °C -14.6 °C 1030 hPa WSW 5.1 km/h 11.1 km/h 47 % 0 mm
16:11 -5.1 °C -14.7 °C 1030 hPa NW 8.5 km/h 13 km/h 47 % 0 mm
16:16 -5.1 °C -14.4 °C 1030 hPa NNW 6.9 km/h 13 km/h 48 % 0 mm
16:17 -5.1 °C -14.4 °C 1030 hPa WNW 7.7 km/h 13 km/h 48 % 0 mm
16:22 -5.1 °C -14.7 °C 1030 hPa WNW 3.5 km/h 11.1 km/h 47 % 0 mm
16:27 -5.1 °C -14.4 °C 1030.4 hPa WNW 1.9 km/h 5.6 km/h 48 % 0 mm
16:32 -5.2 °C -14.5 °C 1030.4 hPa WNW 8 km/h 13 km/h 48 % 0 mm
16:38 -5.2 °C -14.7 °C 1030.4 hPa WNW 5.5 km/h 13 km/h 47 % 0 mm
16:43 -5.2 °C -14.7 °C 1030.4 hPa NW 3.9 km/h 9.3 km/h 47 % 0 mm
16:48 -5.2 °C -14.5 °C 1030.4 hPa NW 6.1 km/h 11.3 km/h 48 % 0 mm
16:49 -5.2 °C -14.5 °C 1030.4 hPa North 7.9 km/h 11.1 km/h 48 % 0 mm
16:54 -5.1 °C -14.4 °C 1030.7 hPa North 4.3 km/h 7.4 km/h 48 % 0 mm
16:56 -5.2 °C -14.5 °C 1030.4 hPa North 5 km/h 7.4 km/h 48 % 0 mm
17:01 -5.2 °C -14.5 °C 1030.7 hPa NW 6.4 km/h 8 km/h 48 % 0 mm
17:07 -5.1 °C -14.4 °C 1030.7 hPa NNW 5.3 km/h 14.8 km/h 48 % 0 mm
17:12 -5.2 °C -14.5 °C 1030.7 hPa NNW 8.5 km/h 16.7 km/h 48 % 0 mm
17:14 -5.2 °C -14.7 °C 1030.7 hPa NNW 3.9 km/h 14.8 km/h 47 % 0 mm
17:19 -5.2 °C -14.5 °C 1030.7 hPa NNW 2.1 km/h 5.6 km/h 48 % 0 mm
17:24 -5.2 °C -14.5 °C 1031 hPa NNW 8.7 km/h 16.1 km/h 48 % 0 mm
17:26 -5.2 °C -14.2 °C 1031 hPa WNW 5.1 km/h 16.7 km/h 49 % 0 mm
17:31 -5.2 °C -14.2 °C 1031 hPa NNW 3.2 km/h 18.5 km/h 49 % 0 mm
17:32 -5.2 °C -14.2 °C 1031 hPa NNW 1.6 km/h 1.9 km/h 49 % 0 mm
17:35 -5.2 °C -14.5 °C 1031 hPa WNW 7.1 km/h 12.9 km/h 48 % 0 mm
17:40 -5.2 °C -14.5 °C 1031 hPa North 8.7 km/h 18.5 km/h 48 % 0 mm
17:42 -5.2 °C -14.5 °C 1031 hPa NNW 9 km/h 13 km/h 48 % 0 mm
17:47 -5.2 °C -14.5 °C 1031 hPa NW 7.4 km/h 16.7 km/h 48 % 0 mm
17:50 -5.2 °C -14.5 °C 1031.4 hPa NW 8.2 km/h 14.8 km/h 48 % 0 mm
17:55 -5.2 °C -14.5 °C 1031 hPa NW 9.3 km/h 16.7 km/h 48 % 0 mm
18:00 -5.2 °C -14.5 °C 1031.4 hPa North 10.5 km/h 20.4 km/h 48 % 0 mm
18:05 -5.2 °C -14.7 °C 1031.4 hPa NNW 7.7 km/h 11.1 km/h 47 % 0 mm
18:06 -5.2 °C -14.7 °C 1031.4 hPa NW 8.4 km/h 18.5 km/h 47 % 0 mm
18:11 -5.2 °C -14.7 °C 1031.4 hPa WNW 10.6 km/h 22.5 km/h 47 % 0 mm
18:12 -5.2 °C -14.5 °C 1031.4 hPa WNW 8.2 km/h 22.2 km/h 48 % 0 mm
18:13 -5.2 °C -14.5 °C 1031.4 hPa NW 10 km/h 18.5 km/h 48 % 0 mm
18:18 -5.2 °C -15 °C 1031.4 hPa North 9.2 km/h 16.7 km/h 46 % 0 mm
18:21 -5.2 °C -15 °C 1031.4 hPa NNW 8 km/h 14.8 km/h 46 % 0 mm
18:26 -5.2 °C -14.7 °C 1031.4 hPa NNW 13.5 km/h 22.2 km/h 47 % 0 mm
18:31 -5.2 °C -14.7 °C 1031.7 hPa NW 11.4 km/h 22.2 km/h 47 % 0 mm
18:32 -5.2 °C -15 °C 1031.4 hPa NW 8.5 km/h 18.5 km/h 46 % 0 mm
18:37 -5.2 °C -14.6 °C 1031.7 hPa WNW 9.5 km/h 14.5 km/h 48 % 0 mm
18:40 -5.2 °C -14.6 °C 1031.7 hPa NW 9 km/h 16.7 km/h 48 % 0 mm
18:45 -5.2 °C -14.8 °C 1031.7 hPa NW 10.9 km/h 24.1 km/h 47 % 0 mm
18:46 -5.2 °C -14.6 °C 1031.7 hPa NNW 9.8 km/h 18.5 km/h 48 % 0 mm
18:52 -5.2 °C -14.8 °C 1031.7 hPa WNW 9.5 km/h 24.1 km/h 47 % 0 mm
18:57 -5.3 °C -14.8 °C 1032.1 hPa NW 9 km/h 14.8 km/h 47 % 0 mm
19:00 -5.3 °C -14.3 °C 1032.1 hPa NW 14 km/h 22.2 km/h 49 % 0 mm
19:03 -5.3 °C -14.6 °C 1032.1 hPa North 6 km/h 17.7 km/h 48 % 0 mm
19:08 -5.3 °C -13.8 °C 1032.1 hPa North 10 km/h 14.8 km/h 51 % 0 mm
19:10 -5.3 °C -13.8 °C 1032.1 hPa NW 8.9 km/h 14.8 km/h 51 % 0 mm
19:15 -5.3 °C -13.7 °C 1032.1 hPa North 12.6 km/h 22.2 km/h 52 % 0 mm
19:16 -5.3 °C -13.7 °C 1031.7 hPa NNW 11.7 km/h 22.2 km/h 52 % 0 mm
19:21 -5.3 °C -13.9 °C 1032.1 hPa NNW 9.7 km/h 32.2 km/h 51 % 0 mm
19:26 -5.4 °C -13.8 °C 1032.1 hPa NW 12.2 km/h 18.5 km/h 52 % 0 mm
19:27 -5.4 °C -13.8 °C 1032.1 hPa NNW 10 km/h 18.5 km/h 52 % 0 mm
19:32 -5.5 °C -14.3 °C 1032.1 hPa NW 12.2 km/h 20.4 km/h 50 % 0 mm
19:37 -5.6 °C -14.3 °C 1032.1 hPa North 11.9 km/h 22.2 km/h 50 % 0 mm
19:38 -5.6 °C -13.9 °C 1032.1 hPa NNW 11.9 km/h 18.5 km/h 52 % 0 mm
19:43 -5.6 °C -13.9 °C 1032.1 hPa NW 11.9 km/h 24.1 km/h 52 % 0 mm
19:48 -5.6 °C -13.4 °C 1031.7 hPa NW 9.7 km/h 16.7 km/h 54 % 0 mm
19:52 -5.7 °C -14.2 °C 1031.7 hPa NW 10.1 km/h 19.3 km/h 51 % 0 mm
19:54 -5.7 °C -14 °C 1032.1 hPa North 10.5 km/h 19.3 km/h 52 % 0 mm
19:59 -5.8 °C -14.3 °C 1032.1 hPa NNW 10.3 km/h 18.5 km/h 51 % 0 mm
20:04 -5.8 °C -14.1 °C 1031.7 hPa NNW 8.5 km/h 22.2 km/h 52 % 0 mm
20:08 -5.9 °C -14.4 °C 1032.1 hPa NNW 8.5 km/h 14.8 km/h 51 % 0 mm
20:13 -5.9 °C -14.4 °C 1032.1 hPa WNW 8.5 km/h 14.8 km/h 51 % 0 mm
20:14 -5.9 °C -14.4 °C 1032.1 hPa NW 11.3 km/h 22.2 km/h 51 % 0 mm
20:19 -6 °C -14.8 °C 1032.1 hPa West 10.5 km/h 14.8 km/h 50 % 0 mm
20:24 -6.1 °C -14.8 °C 1032.1 hPa NNW 12.4 km/h 29.6 km/h 50 % 0 mm
20:29 -6.1 °C -15.1 °C 1032.1 hPa North 6.3 km/h 16.7 km/h 49 % 0 mm
20:33 -6.2 °C -14.9 °C 1032.1 hPa NW 10.3 km/h 12.9 km/h 50 % 0 mm
20:38 -6.2 °C -15.4 °C 1032.1 hPa NW 7.6 km/h 14.8 km/h 48 % 0 mm
20:39 -6.2 °C -15.2 °C 1032.1 hPa NNW 12.6 km/h 20.4 km/h 49 % 0 mm
20:44 -6.3 °C -15.3 °C 1032.1 hPa North 11.1 km/h 18.5 km/h 49 % 0 mm
20:49 -6.3 °C -15.1 °C 1032.1 hPa NNW 12.9 km/h 20.4 km/h 50 % 0 mm
20:51 -6.3 °C -15.1 °C 1032.1 hPa NW 9.7 km/h 20.9 km/h 50 % 0 mm
20:54 -6.4 °C -15.1 °C 1032.1 hPa NW 4.7 km/h 14.8 km/h 50 % 0 mm
20:59 -6.4 °C -15.2 °C 1032.1 hPa NNW 14 km/h 24.1 km/h 50 % 0 mm
21:02 -6.5 °C -15 °C 1032.1 hPa WNW 16.6 km/h 24.1 km/h 51 % 0 mm
21:03 -6.5 °C -15.2 °C 1032.1 hPa NNW 8.2 km/h 24.1 km/h 50 % 0 mm
21:08 -6.5 °C -15 °C 1032.1 hPa NW 9 km/h 13 km/h 51 % 0 mm
21:10 -6.5 °C -15 °C 1032.1 hPa NW 15.3 km/h 25.9 km/h 51 % 0 mm
21:15 -6.6 °C -15.1 °C 1032.4 hPa WNW 10.6 km/h 16.1 km/h 51 % 0 mm
21:20 -6.6 °C -14.6 °C 1032.4 hPa NW 13.8 km/h 17.7 km/h 53 % 0 mm
21:25 -6.7 °C -14.9 °C 1032.4 hPa NW 5 km/h 18.5 km/h 52 % 0 mm
21:26 -6.7 °C -15.2 °C 1032.4 hPa NNW 8.9 km/h 14.8 km/h 51 % 0 mm
21:31 -6.7 °C -15.2 °C 1032.4 hPa NNW 15 km/h 27.8 km/h 51 % 0 mm
21:36 -6.7 °C -15.2 °C 1032.4 hPa WNW 14.6 km/h 20.4 km/h 51 % 0 mm
21:39 -6.7 °C -15.4 °C 1032.4 hPa WNW 13.4 km/h 24.1 km/h 50 % 0 mm
21:44 -6.8 °C -15.2 °C 1032.4 hPa NNW 8.9 km/h 13 km/h 51 % 0 mm
21:49 -6.8 °C -15 °C 1032.1 hPa NW 13.7 km/h 20.4 km/h 52 % 0 mm
21:53 -6.8 °C -15.1 °C 1032.1 hPa West 10.8 km/h 18.5 km/h 52 % 0 mm
21:58 -6.8 °C -15.3 °C 1032.1 hPa NW 10.3 km/h 18.5 km/h 51 % 0 mm
21:59 -6.8 °C -15.3 °C 1032.1 hPa WNW 5.5 km/h 18.5 km/h 51 % 0 mm
22:05 -6.9 °C -15.3 °C 1032.4 hPa West 7.4 km/h 9.3 km/h 51 % 0 mm
22:06 -6.9 °C -15.1 °C 1032.4 hPa NW 7.9 km/h 18.5 km/h 52 % 0 mm
22:12 -6.9 °C -15.4 °C 1032.4 hPa NNW 10.8 km/h 19.3 km/h 51 % 0 mm
22:17 -7 °C -15.4 °C 1032.4 hPa NW 9.5 km/h 31.5 km/h 51 % 0 mm
22:19 -7 °C -15.4 °C 1032.4 hPa WNW 11.9 km/h 22.2 km/h 51 % 0 mm
22:24 -7 °C -15 °C 1032.4 hPa NW 12.1 km/h 25.9 km/h 53 % 0 mm
22:26 -7 °C -15.4 °C 1032.4 hPa NW 5.3 km/h 16.1 km/h 51 % 0 mm
22:31 -7 °C -15.4 °C 1032.4 hPa NW 15 km/h 22.2 km/h 51 % 0 mm
22:36 -7 °C -15.2 °C 1032.4 hPa West 9.2 km/h 14.5 km/h 52 % 0 mm
22:41 -7.1 °C -15.5 °C 1032.4 hPa NNW 8.5 km/h 18.5 km/h 51 % 0 mm
22:42 -7.1 °C -15.5 °C 1032.4 hPa NW 9.3 km/h 18.5 km/h 51 % 0 mm
22:44 -7.1 °C -15.5 °C 1032.4 hPa WNW 9.5 km/h 24.1 km/h 51 % 0 mm
22:47 -7.1 °C -15.1 °C 1032.4 hPa NW 7.9 km/h 16.7 km/h 53 % 0 mm
22:52 -7.1 °C -15.3 °C 1032.4 hPa WNW 13.4 km/h 24.1 km/h 52 % 0 mm
22:53 -7.1 °C -15.3 °C 1032.4 hPa WSW 10.6 km/h 20.4 km/h 52 % 0 mm
22:58 -7.1 °C -15.6 °C 1032.4 hPa WNW 14 km/h 22.2 km/h 51 % 0 mm
23:04 -7.1 °C -15.3 °C 1032.1 hPa NW 11.4 km/h 20.4 km/h 52 % 0 mm
23:09 -7.1 °C -15.3 °C 1032.1 hPa NW 13.2 km/h 22.2 km/h 52 % 0 mm
23:12 -7.1 °C -15.3 °C 1032.1 hPa WNW 14.5 km/h 18.5 km/h 52 % 0 mm
23:14 -7.1 °C -15.6 °C 1032.1 hPa WNW 9.5 km/h 16.1 km/h 51 % 0 mm
23:19 -7.2 °C -15.1 °C 1032.1 hPa NW 11.9 km/h 16.1 km/h 53 % 0 mm
23:24 -7.2 °C -15.6 °C 1032.1 hPa WNW 8.5 km/h 18.5 km/h 51 % 0 mm
23:25 -7.2 °C -15.4 °C 1032.1 hPa NW 8.7 km/h 13 km/h 52 % 0 mm
23:30 -7.2 °C -15.2 °C 1031.7 hPa NNW 16.7 km/h 24.1 km/h 53 % 0 mm
23:33 -7.2 °C -15.2 °C 1031.7 hPa NNW 5.1 km/h 11.1 km/h 53 % 0 mm
23:35 -7.3 °C -15.2 °C 1031.7 hPa West 19 km/h 31.5 km/h 53 % 0 mm
23:37 -7.3 °C -15.5 °C 1031.7 hPa NW 15.1 km/h 24.1 km/h 52 % 0 mm
23:39 -7.3 °C -15.5 °C 1031.7 hPa WNW 8 km/h 24.1 km/h 52 % 0 mm
23:44 -7.3 °C -15.1 °C 1031.7 hPa NW 11.1 km/h 22.2 km/h 54 % 0 mm
23:49 -7.4 °C -15.3 °C 1031.7 hPa WNW 13.7 km/h 25.9 km/h 53 % 0 mm
23:50 -7.4 °C -15.4 °C 1031.7 hPa WNW 11.4 km/h 19.3 km/h 53 % 0 mm
23:55 -7.4 °C -15.2 °C 1031.7 hPa NW 12.4 km/h 20.4 km/h 54 % 0 mm
23:57 -7.4 °C -14.9 °C 1031.7 hPa NW 10.8 km/h 27.8 km/h 55 % 0 mm
Crab Meadow Weather
Compliments of Weather Underground - 3.5 mb

Script developed by  Jim McMurry - jmcmurry@mwt.net Adapted for the template by  Wim van der Kuil - Leuven-Template.eu

Cloud Base: The cloud base is the distance from the sea level to the base of the clouds. It is estimated using the current temperature and humidity to indicate an altitude where the air could be cold enough for clouds to form. There may or may not be clouds at that altitude (or at any altitude)